Location: Goettingen
(51.5300°N, 9.9433°E)
Time: 06:58:55
(UTC+02:00)

ISS - Pass Details

Date: 20 May 2017
Orbit: 401 x 407 km, 51.6° (Epoch: 24 September)

Event Time Altitude Azimuth Distance (km) Brightness Sun altitude
Exits shadow 03:50:00 - 276° (W) 2,150 -0.5 -11.0°
Reaches altitude 10° 03:51:36 10° 276° (W) 1,490 -1.3 -10.9°
Maximum altitude 03:54:57 89° 188° (S) 418 -3.8 -10.6°
Drops below altitude 10° 03:58:16 10° 98° (E) 1,479 -0.6 -10.2°
Sets 04:00:21 0° 98° (E) 2,337 0.5 -10.0°
